Weather History for York, NE

Change the Weather History Date:

Friday, February 21, 2014

  Actual Average Record
Temperature  
Mean Temperature 34 °F -  
Max Temperature 51 °F 42 °F 71 °F (1977)
Min Temperature 17 °F 21 °F -5 °F (1978)
Degree Days  
Heating Degree Days 31    
Moisture  
Dew Point 19 °F    
Average Humidity 60    
Maximum Humidity 86    
Minimum Humidity 28    
Precipitation  
Precipitation 0.00 in - - ()
Sea Level Pressure  
Sea Level Pressure 29.80 in    
Wind  
Wind Speed 10 mph (West)    
Max Wind Speed 24 mph    
Max Gust Speed 31 mph    
Visibility 10 miles    
Events      
Averages and records for this station are not official NWS values.
T = Trace of Precipitation, MM = Missing Value Source: NWS Daily Summary

Daily Weather History Graph

Daily Weather History Graph

Search for Another Location

Airport:

Trip Planner

Search our weather history database for the weather conditions in past years. The results will help you decide how hot, cold, wet, or windy it might be!

Date:

Astronomy

Feb. 21, 2014 Rise Set
Actual Time 7:16 AM CST 6:12 PM CST
Civil Twilight 6:48 AM CST 6:40 PM CST
Nautical Twilight 6:16 AM CST 7:12 PM CST
Astronomical Twilight 5:44 AM CST 7:43 PM CST
Moon 12:09 AM CST (2/21) 10:38 AM CST (2/21)
Length of Visible Light 11h 51m
Length of Day
10h 55m
Waning Gibbous, 60% of the Moon is Illuminated
Feb 21
Waning Gibbous
Feb 22
Last Quarter
Mar 1
New
Mar 8
First Quarter
Mar 16
Full

Hourly Weather History & Observations

Time (CST) Temp. Windchill Dew Point Humidity Pressure Visibility Wind Dir Wind Speed Gust Speed Precip Events Conditions
12:15 AM 24.8 °F 14.0 °F 15.8 °F 69% 29.81 in 10.0 mi WNW 11.5 mph - N/A   Clear
12:35 AM 26.6 °F 17.5 °F 15.8 °F 64% 29.81 in 10.0 mi WNW 9.2 mph - N/A   Clear
12:55 AM 23.0 °F 13.9 °F 15.8 °F 74% 29.81 in 10.0 mi West 8.1 mph - N/A   Clear
1:15 AM 21.2 °F 10.9 °F 14.0 °F 74% 29.81 in 10.0 mi West 9.2 mph - N/A   Clear
1:35 AM 19.4 °F 9.5 °F 14.0 °F 80% 29.81 in 10.0 mi WNW 8.1 mph - N/A   Clear
1:55 AM 19.4 °F 7.9 °F 15.8 °F 86% 29.81 in 10.0 mi West 10.4 mph - N/A   Clear
2:15 AM 23.0 °F 13.9 °F 15.8 °F 74% 29.80 in 10.0 mi WNW 8.1 mph - N/A   Clear
2:35 AM 21.2 °F 9.5 °F 15.8 °F 80% 29.80 in 10.0 mi West 11.5 mph - N/A   Clear
2:55 AM 23.0 °F 11.7 °F 15.8 °F 74% 29.81 in 10.0 mi West 11.5 mph - N/A   Clear
3:15 AM 21.2 °F 11.7 °F 15.8 °F 80% 29.81 in 10.0 mi West 8.1 mph - N/A   Clear
3:35 AM 17.6 °F 7.3 °F 14.0 °F 86% 29.81 in 10.0 mi West 8.1 mph - N/A   Clear
3:55 AM 17.6 °F 8.2 °F 14.0 °F 86% 29.81 in 10.0 mi WSW 6.9 mph - N/A   Clear
4:15 AM 19.4 °F 10.4 °F 14.0 °F 80% 29.81 in 10.0 mi WSW 6.9 mph - N/A   Clear
4:35 AM 19.4 °F 10.4 °F 15.8 °F 86% 29.81 in 10.0 mi WSW 6.9 mph - N/A   Clear
4:55 AM 21.2 °F 11.7 °F 17.6 °F 86% 29.82 in 10.0 mi SW 8.1 mph - N/A   Clear
5:15 AM 21.2 °F 10.9 °F 17.6 °F 86% 29.82 in 10.0 mi WSW 9.2 mph - N/A   Clear
5:35 AM 23.0 °F 14.7 °F 17.6 °F 80% 29.82 in 10.0 mi SW 6.9 mph - N/A   Clear
5:55 AM 23.0 °F 15.8 °F 17.6 °F 80% 29.81 in 10.0 mi SW 5.8 mph - N/A   Clear
6:15 AM 19.4 °F 12.8 °F 15.8 °F 86% 29.81 in 10.0 mi SW 4.6 mph - N/A   Clear
6:35 AM 19.4 °F 10.4 °F 15.8 °F 86% 29.80 in 10.0 mi SW 6.9 mph - N/A   Clear
6:55 AM 19.4 °F 12.8 °F 15.8 °F 86% 29.79 in 10.0 mi SSW 4.6 mph - N/A   Clear
7:15 AM 19.4 °F 10.4 °F 15.8 °F 86% 29.79 in 10.0 mi SSW 6.9 mph - N/A   Clear
7:35 AM 19.4 °F 12.8 °F 15.8 °F 86% 29.79 in 10.0 mi SW 4.6 mph - N/A   Clear
7:55 AM 21.2 °F 10.9 °F 17.6 °F 86% 29.78 in 10.0 mi WSW 9.2 mph - N/A   Clear
8:15 AM 24.8 °F 13.4 °F 19.4 °F 80% 29.78 in 10.0 mi WSW 12.7 mph - N/A   Clear
8:35 AM 26.6 °F 16.8 °F 19.4 °F 74% 29.79 in 10.0 mi WSW 10.4 mph - N/A   Clear
8:55 AM 28.4 °F 19.1 °F 23.0 °F 80% 29.77 in 10.0 mi WSW 10.4 mph - N/A   Clear
9:15 AM 32.0 °F 22.5 °F 23.0 °F 69% 29.77 in 10.0 mi West 12.7 mph - N/A   Clear
9:35 AM 33.8 °F 25.3 °F 23.0 °F 65% 29.77 in 10.0 mi West 11.5 mph - N/A   Clear
9:55 AM 37.4 °F 28.2 °F 23.0 °F 56% 29.76 in 10.0 mi West 16.1 mph - N/A   Clear
10:15 AM 39.2 °F 31.6 °F 24.8 °F 56% 29.76 in 10.0 mi West 12.7 mph - N/A   Clear
10:35 AM 42.8 °F 35.1 °F 23.0 °F 46% 29.75 in 10.0 mi West 16.1 mph - N/A   Clear
10:55 AM 44.6 °F 37.4 °F 23.0 °F 43% 29.76 in 10.0 mi WNW 16.1 mph - N/A   Clear
11:15 AM 46.4 °F 39.0 °F 23.0 °F 40% 29.76 in 10.0 mi West 19.6 mph 26.5 mph N/A   Clear
11:35 AM 46.4 °F 39.0 °F 21.2 °F 37% 29.76 in 10.0 mi WNW 19.6 mph 27.6 mph N/A   Clear
11:55 AM 48.2 °F - 23.0 °F 37% 29.76 in 10.0 mi WNW 21.9 mph 28.8 mph N/A   Clear
12:15 PM 48.2 °F - 21.2 °F 34% 29.76 in 10.0 mi WNW 21.9 mph 27.6 mph N/A   Clear
12:35 PM 48.2 °F - 21.2 °F 34% 29.76 in 10.0 mi NW 19.6 mph 27.6 mph N/A   Clear
12:55 PM 48.2 °F - 19.4 °F 32% 29.76 in 10.0 mi WNW 19.6 mph 28.8 mph N/A   Clear
1:15 PM 48.2 °F - 19.4 °F 32% 29.76 in 10.0 mi NW 20.7 mph 26.5 mph N/A   Clear
1:35 PM 50.0 °F - 19.4 °F 30% 29.76 in 10.0 mi WNW 24.2 mph 29.9 mph N/A   Partly Cloudy
1:55 PM 48.2 °F - 19.4 °F 32% 29.76 in 10.0 mi WNW 18.4 mph 29.9 mph N/A   Clear
2:15 PM 50.0 °F - 19.4 °F 30% 29.76 in 10.0 mi WNW 20.7 mph 27.6 mph N/A   Partly Cloudy
2:35 PM 51.8 °F - 19.4 °F 28% 29.75 in 10.0 mi West 24.2 mph 31.1 mph N/A   Partly Cloudy
2:55 PM 48.2 °F - 19.4 °F 32% 29.76 in 10.0 mi NW 19.6 mph 27.6 mph N/A   Scattered Clouds
3:15 PM 48.2 °F - 21.2 °F 34% 29.76 in 10.0 mi WNW 15.0 mph 24.2 mph N/A   Partly Cloudy
3:35 PM 50.0 °F - 21.2 °F 32% 29.77 in 10.0 mi WNW 16.1 mph 23.0 mph N/A   Partly Cloudy
3:55 PM 48.2 °F - 21.2 °F 34% 29.78 in 10.0 mi NW 13.8 mph 24.2 mph N/A   Partly Cloudy
4:15 PM 50.0 °F - 17.6 °F 28% 29.78 in 10.0 mi NW 20.7 mph - N/A   Clear
4:35 PM 50.0 °F - 17.6 °F 28% 29.78 in 10.0 mi NW 16.1 mph 24.2 mph N/A   Clear
4:55 PM 48.2 °F - 17.6 °F 30% 29.79 in 10.0 mi NW 16.1 mph 21.9 mph N/A   Partly Cloudy
5:15 PM 48.2 °F - 17.6 °F 30% 29.79 in 10.0 mi NW 17.3 mph - N/A   Mostly Cloudy
5:35 PM 44.6 °F 40.7 °F 21.2 °F 39% 29.80 in 10.0 mi North 6.9 mph - N/A   Scattered Clouds
5:55 PM 41.0 °F 39.0 °F 21.2 °F 45% 29.81 in 10.0 mi North 3.5 mph - N/A   Clear
6:15 PM 41.0 °F - 21.2 °F 45% 29.81 in 10.0 mi Calm Calm - N/A   Clear
6:35 PM 39.2 °F - 21.2 °F 49% 29.81 in 10.0 mi Calm Calm - N/A   Clear
6:55 PM 37.4 °F - 21.2 °F 52% 29.82 in 10.0 mi Calm Calm - N/A   Clear
7:15 PM 37.4 °F - 19.4 °F 48% 29.83 in 10.0 mi Calm Calm - N/A   Clear
7:35 PM 32.0 °F 28.7 °F 19.4 °F 60% 29.84 in 10.0 mi North 3.5 mph - N/A   Clear
7:55 PM 35.6 °F 32.8 °F 19.4 °F 52% 29.84 in 10.0 mi North 3.5 mph - N/A   Clear
8:15 PM 33.8 °F - 19.4 °F 56% 29.83 in 10.0 mi Calm Calm - N/A   Clear
8:35 PM 32.0 °F 28.7 °F 19.4 °F 60% 29.85 in 10.0 mi SSE 3.5 mph - N/A   Clear
8:55 PM 35.6 °F 30.7 °F 21.2 °F 56% 29.84 in 10.0 mi SSE 5.8 mph - N/A   Clear
9:15 PM 32.0 °F 25.6 °F 23.0 °F 69% 29.86 in 10.0 mi South 6.9 mph - N/A   Clear
9:35 PM 32.0 °F 26.4 °F 23.0 °F 69% 29.86 in 10.0 mi South 5.8 mph - N/A   Partly Cloudy
9:55 PM 32.0 °F 28.7 °F 23.0 °F 69% 29.85 in 10.0 mi SSE 3.5 mph - N/A   Partly Cloudy
10:15 PM 32.0 °F 27.5 °F 21.2 °F 64% 29.85 in 10.0 mi SSE 4.6 mph - N/A   Scattered Clouds
10:35 PM 32.0 °F 27.5 °F 23.0 °F 69% 29.86 in 10.0 mi South 4.6 mph - N/A   Mostly Cloudy
10:55 PM 32.0 °F - 23.0 °F 69% 29.86 in 10.0 mi Calm Calm - N/A   Overcast
11:15 PM 30.2 °F 26.7 °F 23.0 °F 75% 29.87 in 10.0 mi SSW 3.5 mph - N/A   Overcast
11:35 PM 32.0 °F 28.7 °F 23.0 °F 69% 29.86 in 10.0 mi SSE 3.5 mph - N/A   Mostly Cloudy
11:55 PM 32.0 °F 25.6 °F 23.0 °F 69% 29.84 in 10.0 mi SE 6.9 mph - N/A   Mostly Cloudy